Snowfall_Accumulation
0.0 1.3 1.2 0.0 0.1 0.0 0.7 3.2 2.0 0.0 0.0 0.5 0.3 0.4 0.0 0.0 0.0 0.0 0.0 0.0 0.0 0.0 0.0 0.0 0.0 0.0 0.0 0.0 0.0 0.0 0.0 0.0 0.0 0.0 0.0 0.0 0.0 0.0 0.0 0.0 0.0 0.0 0.0 0.0
0.0 1.0 0.0 0.1 0.0 1.0 0.7 3.4 3.8 1.2 0.0 0.0 1.1 0.5 0.0 0.0 0.0 0.0 0.0 0.0 0.0 0.0 0.0 0.0 0.1 0.0 0.0 0.0 0.0 0.0 0.0 0.0 0.0 0.0 0.0 0.0 0.0 0.0 0.0 0.0 0.0 0.0 0.0 0.0
2.2 0.0 0.0 0.0 0.3 1.7 2.0 3.8 3.5 2.7 1.6 1.3 1.0 1.5 0.0 0.0 0.0 0.0 0.0 0.0 0.0 0.0 0.0 0.0 0.1 0.1 0.1 0.1 0.1 0.0 0.0 0.0 0.0 0.0 0.0 0.0 0.0 0.0 0.0 0.0 0.0 0.0 0.0 0.0
1.4 0.0 0.0 0.3 0.6 0.3 4.4 0.0 0.0 1.6 6.5 8.1 0.1 9.9 0.4 0.0 0.0 0.0 0.0 0.0 0.0 0.0 0.0 0.0 0.0 0.1 0.0 0.1 0.1 0.0 0.0 0.0 0.0 0.0 0.0 0.0 0.0 0.0 0.0 0.0 0.0 0.0 0.0 0.0
11.1 0.0 0.1 1.0 0.0 0.0 1.0 0.0 0.1 1.8 5.4 8.4 4.9 13.6 2.2 0.0 0.0 0.0 0.0 0.0 0.0 0.0 0.0 0.0 0.0 0.1 0.0 0.0 0.0 0.0 0.0 0.2 0.0 0.0 0.0 0.0 0.0 0.0 0.0 0.0 0.0 0.0 0.0 0.0
1.4 0.0 0.0 1.2 0.4 0.2 0.0 0.1 0.1 1.9 5.4 21.5 3.6 6.0 1.7 1.2 2.0 0.0 0.0 0.0 0.0 0.0 0.0 0.0 0.0 0.0 0.0 0.0 0.0 0.0 0.0 0.3 0.0 0.0 0.0 0.0 0.0 0.0 0.0 0.0 0.0 0.0 0.0 0.0
8.8 4.0 0.3 1.2 3.0 0.4 2.6 12.2 24.0 20.5 23.3 7.0 1.1 3.7 5.4 0.4 0.0 0.0 0.0 0.0 0.0 0.0 0.0 0.0 0.0 0.0 0.0 0.0 0.0 0.0 0.0 0.3 0.0 0.0 0.0 0.0 0.0 0.0 0.0 0.0 0.0 0.0 0.0 0.0
11.5 12.1 5.3 1.3 4.2 6.8 1.4 8.9 18.7 11.8 4.7 1.5 0.2 4.9 3.9 0.2 0.0 0.0 0.0 0.0 0.0 0.0 0.0 0.0 0.0 0.0 0.0 0.0 0.0 0.0 0.0 0.2 0.0 0.0 0.0 0.0 0.0 0.0 0.0 0.0 0.0 0.0 0.0 0.0
9.3 4.7 0.6 1.6 0.8 3.3 5.4 16.1 2.8 11.9 3.1 5.4 1.1 1.3 1.0 0.1 0.0 0.0 0.0 0.0 0.0 0.0 0.0 0.0 0.0 0.0 0.0 0.0 0.0 0.0 0.0 0.1 0.0 0.0 0.0 0.0 0.0 0.0 0.0 0.0 0.0 0.0 0.0 0.0
5.4 5.9 0.2 1.0 1.6 1.4 6.3 4.6 12.4 25.0 17.0 4.2 1.1 2.5 3.9 1.0 0.5 0.0 0.0 0.3 0.2 0.0 0.0 0.1 0.0 0.0 0.0 0.0 0.0 0.0 0.0 0.0 0.0 0.0 0.0 0.0 0.0 0.0 0.0 0.0 0.0 0.0 0.0 0.0
4.5 14.7 1.3 0.8 5.3 8.2 9.9 23.9 13.6 12.5 7.8 10.9 5.3 5.7 5.7 4.3 3.7 3.5 1.8 1.5 1.5 1.3 0.8 0.2 0.0 0.0 0.0 0.0 0.0 0.0 0.0 0.0 0.0 0.0 0.0 0.0 0.0 0.0 0.0 0.0 0.0 0.0 0.0 0.0
4.1 14.8 11.7 2.7 3.4 5.1 4.5 11.3 15.8 16.2 7.3 9.2 11.7 9.5 3.9 6.0 6.6 8.3 6.6 4.5 2.8 2.6 1.3 0.7 0.2 0.1 0.0 0.1 0.1 0.0 0.0 0.0 0.0 0.0 0.0 0.0 0.0 0.0 0.0 0.0 0.0 0.0 0.0 0.0
6.8 18.9 12.5 8.6 5.4 2.6 8.9 7.8 10.4 12.5 14.7 15.4 18.3 15.9 5.9 5.6 6.5 8.7 8.8 6.5 5.8 3.7 2.5 1.5 0.3 0.1 0.5 0.1 0.1 0.1 0.1 0.0 0.0 0.0 0.0 0.0 0.0 0.0 0.0 0.0 0.0 0.0 0.0 0.0
3.8 10.4 12.6 12.7 13.4 12.7 12.6 6.3 8.3 22.8 32.8 12.7 16.3 15.0 10.6 8.8 7.4 9.1 7.2 8.1 7.7 6.3 5.9 3.0 2.7 1.4 0.4 0.4 0.8 0.5 0.3 0.1 0.0 0.0 0.0 0.0 0.0 0.0 0.0 0.0 0.0 0.0 0.0 0.0
2.2 14.0 4.3 2.3 2.2 9.6 10.6 10.4 10.9 22.1 13.2 20.5 16.7 13.8 15.7 16.8 19.1 17.5 15.2 13.1 9.4 8.7 9.7 6.8 3.8 2.4 1.3 1.0 0.7 0.5 0.3 0.1 0.0 0.0 0.1 0.0 0.0 0.0 0.0 0.0 0.0 0.0 0.0 0.0
3.1 14.1 10.7 7.9 3.1 5.9 9.5 6.2 7.2 10.7 8.7 11.7 9.9 9.6 12.9 15.5 14.0 14.1 12.3 11.3 11.4 13.9 12.9 8.0 5.3 2.2 1.3 1.3 1.1 0.8 0.4 0.1 0.3 0.6 0.2 0.0 0.1 0.0 0.0 0.1 0.0 0.0 0.1 0.0
6.1 8.4 13.3 8.8 3.2 6.7 14.5 14.9 9.3 9.0 10.5 13.2 18.2 17.5 15.2 14.4 13.9 15.9 15.6 17.0 17.5 20.1 16.9 11.9 6.6 4.1 2.4 1.6 1.6 1.6 0.7 0.7 0.6 0.6 0.2 0.1 0.1 0.2 0.0 0.0 0.0 0.0 0.0 0.0
1.6 7.1 11.7 10.2 6.1 15.7 7.4 4.3 6.3 8.7 10.0 10.2 11.0 13.8 14.9 14.1 11.4 13.0 15.8 21.8 21.6 24.3 20.6 15.2 11.2 6.0 2.7 1.3 1.2 1.2 1.0 1.4 1.0 0.7 0.2 0.3 0.6 0.4 0.1 0.5 1.1 0.7 0.1 1.3
1.9 3.4 9.5 9.3 4.7 1.4 1.1 1.0 2.6 6.5 9.4 6.6 8.2 8.0 8.4 6.5 5.7 5.7 5.6 11.4 18.8 25.5 24.7 21.0 17.8 10.1 5.1 3.0 1.9 2.0 1.2 1.0 0.7 1.2 1.8 0.5 1.6 1.2 1.3 4.3 3.2 7.2 3.6 10.2
0.1 1.6 10.0 7.2 8.5 3.2 1.5 0.1 0.3 2.4 9.5 2.0 6.0 7.3 7.4 6.8 7.6 7.1 8.0 12.8 16.1 20.7 26.0 29.7 21.1 8.7 5.2 2.4 1.9 1.7 1.3 1.1 0.4 0.6 0.8 0.8 0.4 0.5 2.8 6.8 6.0 5.3 6.0 6.6
3.9 4.8 7.4 4.5 9.6 1.5 0.5 0.5 0.6 3.1 4.8 3.3 5.2 7.3 9.3 12.4 14.8 11.6 10.0 10.7 13.6 18.2 25.2 27.8 18.9 8.2 4.3 3.1 3.2 1.3 1.4 1.3 1.8 2.8 2.9 2.8 1.2 1.7 1.5 5.9 4.8 3.4 2.8 2.4
4.5 3.8 3.0 3.9 8.5 3.1 0.1 0.0 1.2 2.6 0.8 2.6 4.2 6.6 9.1 6.6 5.4 5.5 6.3 8.2 12.1 17.0 26.1 32.0 25.4 16.1 11.8 9.3 4.6 4.7 7.0 3.2 2.4 5.2 2.6 4.6 3.6 2.7 1.8 0.4 0.3 2.5 2.7 4.7
6.8 4.3 3.4 1.7 0.5 0.5 0.4 0.6 0.6 0.2 1.3 2.0 5.8 4.1 5.7 4.0 3.3 3.0 4.5 5.7 9.5 14.6 25.4 35.2 36.9 30.2 14.6 9.2 8.2 8.5 7.3 6.5 7.1 5.0 5.6 8.5 7.9 6.5 5.2 3.5 4.0 6.8 5.8 5.8
1.2 0.8 1.4 0.8 0.6 1.1 0.9 0.0 0.0 0.3 1.3 2.4 3.6 3.4 2.3 3.2 1.8 1.6 1.8 4.0 7.1 10.9 22.3 32.7 32.1 27.5 15.0 15.0 14.8 8.9 7.0 5.5 5.2 7.4 8.9 8.4 8.7 8.2 10.5 9.4 8.4 7.6 10.1 9.9
1.7 0.4 0.5 0.4 2.5 1.5 1.1 0.4 0.5 0.7 1.4 1.0 0.2 1.0 2.2 2.4 1.0 1.8 1.6 2.7 5.7 9.2 16.4 27.3 33.0 33.4 24.6 19.4 21.1 15.2 12.7 7.2 7.9 8.2 10.0 10.3 10.5 10.0 9.6 9.7 9.2 9.1 8.1 7.3
1.7 2.1 2.6 1.7 0.7 1.9 0.6 0.5 0.2 1.2 0.8 0.9 1.6 1.1 1.2 2.1 2.3 1.6 1.6 1.9 4.3 7.8 13.0 19.5 28.7 31.6 32.2 27.3 20.4 19.2 13.2 8.5 8.5 8.3 7.8 7.9 8.7 9.0 8.0 7.7 8.4 8.0 6.9 7.7